The following orbital elements are taken from MPC 57131:
Epoch 2006 Jan. 25.0 TT = JDT 2453760.5
T 2006 Feb. 7.8875 TT MPC
q 1.601940 (2000.0) P Q
z -0.000806 Peri. 327.9000 +0.2581066 -0.3194697
+/-0.000000 Node 272.8018 -0.5736009 -0.8100795
e 1.001292 Incl. 114.0965 -0.7774078 +0.4916405
From 974 observations 2004 Jan. 28-2006 July 6, mean residual 0".6.